Time,TemperatureF,DewpointF,PressureIn,WindDirection,WindDirectionDegrees,WindSpeedMPH,WindSpeedGustMPH,Humidity,HourlyPrecipIn,Conditions,Clouds,dailyrainin,SoftwareType,DateUTC
2013-07-01 00:01:00,62.2,53.1,29.86,NNE,32,0.0,0.0,72,0.08,,---,0.00,VWS V14.01,2013-07-01 04:01:00,
2013-07-01 00:06:00,62.2,53.5,29.86,NNE,32,0.0,0.0,73,0.08,,---,0.00,VWS V14.01,2013-07-01 04:06:00,
2013-07-01 00:11:00,62.2,53.9,29.86,NNE,32,0.0,0.0,74,0.08,,---,0.00,VWS V14.01,2013-07-01 04:11:00,
2013-07-01 00:16:00,62.4,54.4,29.86,NNE,32,0.0,0.0,75,0.08,,---,0.00,VWS V14.01,2013-07-01 04:16:00,
2013-07-01 00:21:00,62.6,54.6,29.86,NNE,32,0.0,0.0,75,0.08,,---,0.00,VWS V14.01,2013-07-01 04:21:00,
2013-07-01 00:26:00,62.6,54.9,29.86,NNE,32,0.0,0.0,76,0.08,,---,0.00,VWS V14.01,2013-07-01 04:26:00,
2013-07-01 00:31:00,62.8,55.1,29.83,NNE,32,0.0,0.0,76,0.00,,---,0.00,VWS V14.01,2013-07-01 04:31:00,
2013-07-01 00:37:00,62.8,55.1,29.83,NNE,32,0.0,0.0,76,0.00,,---,0.00,VWS V14.01,2013-07-01 04:37:00,
2013-07-01 00:42:00,62.8,55.5,29.83,NNE,32,0.0,0.0,77,0.00,,---,0.00,VWS V14.01,2013-07-01 04:42:00,
2013-07-01 00:47:00,62.8,55.1,29.86,NNE,32,0.0,0.0,76,0.00,,---,0.00,VWS V14.01,2013-07-01 04:47:00,
2013-07-01 00:52:00,62.8,55.1,29.86,NNE,32,0.0,0.0,76,0.00,,---,0.00,VWS V14.01,2013-07-01 04:52:00,
2013-07-01 00:57:00,62.8,55.5,29.86,NNE,32,0.0,0.0,77,0.00,,---,0.00,VWS V14.01,2013-07-01 04:57:00,
2013-07-01 01:02:00,62.8,55.1,29.86,NNE,32,0.0,0.0,76,0.00,,---,0.00,VWS V14.01,2013-07-01 05:02:00,
2013-07-01 01:07:00,62.8,55.5,29.86,NNE,32,0.0,0.0,77,0.00,,---,0.00,VWS V14.01,2013-07-01 05:07:00,
2013-07-01 01:12:00,63.0,56.0,29.86,NNE,32,0.0,0.0,78,0.00,,---,0.00,VWS V14.01,2013-07-01 05:12:00,
2013-07-01 01:17:00,63.1,56.2,29.83,NNE,32,0.0,0.0,78,0.00,,---,0.00,VWS V14.01,2013-07-01 05:17:00,
2013-07-01 01:22:00,63.1,56.2,29.83,NNE,32,0.0,0.0,78,0.00,,---,0.00,VWS V14.01,2013-07-01 05:22:00,
2013-07-01 01:27:00,63.3,56.7,29.83,NNE,32,0.0,0.0,79,0.00,,---,0.00,VWS V14.01,2013-07-01 05:27:00,
2013-07-01 01:32:00,63.5,56.9,29.86,NNE,32,0.0,0.0,79,0.00,,---,0.00,VWS V14.01,2013-07-01 05:32:00,
2013-07-01 01:37:00,63.5,56.9,29.86,NNE,32,0.0,0.0,79,0.00,,---,0.00,VWS V14.01,2013-07-01 05:37:00,
2013-07-01 01:42:00,63.7,57.0,29.86,NNE,32,0.0,0.0,79,0.00,,---,0.00,VWS V14.01,2013-07-01 05:42:00,
2013-07-01 01:47:00,63.7,57.0,29.86,NNE,32,0.0,0.0,79,0.00,,---,0.00,VWS V14.01,2013-07-01 05:47:00,
2013-07-01 01:52:00,63.5,56.5,29.86,NNE,32,0.0,0.0,78,0.00,,---,0.00,VWS V14.01,2013-07-01 05:52:00,
2013-07-01 01:57:00,63.5,56.5,29.86,NNE,32,0.0,0.0,78,0.00,,---,0.00,VWS V14.01,2013-07-01 05:57:00,
2013-07-01 02:02:00,63.5,56.5,29.86,NNE,32,0.0,0.0,78,0.00,,---,0.00,VWS V14.01,2013-07-01 06:02:00,
2013-07-01 02:08:00,63.7,57.0,29.86,NNE,32,0.0,0.0,79,0.00,,---,0.00,VWS V14.01,2013-07-01 06:08:00,
2013-07-01 02:13:00,63.5,56.5,29.86,NNE,32,0.0,0.0,78,0.00,,---,0.00,VWS V14.01,2013-07-01 06:13:00,
2013-07-01 02:18:00,63.5,56.5,29.86,NNE,32,0.0,0.0,78,0.00,,---,0.00,VWS V14.01,2013-07-01 06:18:00,
2013-07-01 02:23:00,63.3,56.3,29.86,NNE,32,0.0,0.0,78,0.00,,---,0.00,VWS V14.01,2013-07-01 06:23:00,
2013-07-01 02:28:00,63.5,56.9,29.86,NNE,32,0.0,0.0,79,0.00,,---,0.00,VWS V14.01,2013-07-01 06:28:00,
2013-07-01 02:33:00,63.5,56.5,29.86,NNE,32,0.0,0.0,78,0.00,,---,0.00,VWS V14.01,2013-07-01 06:33:00,
2013-07-01 02:38:00,63.5,56.5,29.86,NNE,32,0.0,0.0,78,0.00,,---,0.00,VWS V14.01,2013-07-01 06:38:00,
2013-07-01 02:43:00,63.5,56.9,29.86,NNE,32,0.0,0.0,79,0.00,,---,0.00,VWS V14.01,2013-07-01 06:43:00,
2013-07-01 02:48:00,63.5,56.9,29.86,NNE,32,0.0,0.0,79,0.00,,---,0.00,VWS V14.01,2013-07-01 06:48:00,
2013-07-01 02:53:00,63.7,57.0,29.86,NNE,32,0.0,0.0,79,0.00,,---,0.00,VWS V14.01,2013-07-01 06:53:00,
2013-07-01 02:58:00,63.7,57.4,29.86,NNE,32,0.0,0.0,80,0.00,,---,0.00,VWS V14.01,2013-07-01 06:58:00,
2013-07-01 03:03:00,63.9,57.6,29.86,NNE,32,0.0,0.0,80,0.00,,---,0.00,VWS V14.01,2013-07-01 07:03:00,
2013-07-01 03:08:00,63.9,57.6,29.86,NNE,32,0.0,0.0,80,0.00,,---,0.00,VWS V14.01,2013-07-01 07:08:00,
2013-07-01 03:13:00,63.9,57.6,29.86,NNE,32,0.0,0.0,80,0.00,,---,0.00,VWS V14.01,2013-07-01 07:13:00,
2013-07-01 03:18:00,63.9,57.6,29.86,NNE,32,0.0,0.0,80,0.00,,---,0.00,VWS V14.01,2013-07-01 07:18:00,
2013-07-01 03:23:00,63.9,57.6,29.86,NNE,32,0.0,0.0,80,0.00,,---,0.00,VWS V14.01,2013-07-01 07:23:00,
2013-07-01 03:28:00,63.9,57.6,29.86,NNE,32,0.0,0.0,80,0.00,,---,0.00,VWS V14.01,2013-07-01 07:28:00,
2013-07-01 03:34:00,63.9,57.9,29.83,NNE,32,0.0,0.0,81,0.00,,---,0.00,VWS V14.01,2013-07-01 07:34:00,
2013-07-01 03:39:00,63.9,57.9,29.83,NNE,32,0.0,0.0,81,0.00,,---,0.00,VWS V14.01,2013-07-01 07:39:00,
2013-07-01 03:44:00,64.0,58.1,29.83,NNE,32,0.0,0.0,81,0.00,,---,0.00,VWS V14.01,2013-07-01 07:44:00,
2013-07-01 03:49:00,64.0,58.1,29.83,NNE,32,0.0,0.0,81,0.04,,---,0.04,VWS V14.01,2013-07-01 07:49:00,
2013-07-01 03:54:00,64.0,58.1,29.83,NNE,32,0.0,0.0,81,0.04,,---,0.04,VWS V14.01,2013-07-01 07:54:00,
2013-07-01 03:59:00,64.0,58.1,29.83,NNE,32,0.0,0.0,81,0.04,,---,0.04,VWS V14.01,2013-07-01 07:59:00,
2013-07-01 04:04:00,64.0,58.1,29.83,NNE,32,0.0,0.0,81,0.04,,---,0.04,VWS V14.01,2013-07-01 08:04:00,
2013-07-01 04:09:00,64.2,58.6,29.83,NNE,32,0.0,0.0,82,0.04,,---,0.04,VWS V14.01,2013-07-01 08:09:00,
2013-07-01 04:14:00,64.4,58.8,29.83,NNE,32,0.0,0.0,82,0.04,,---,0.04,VWS V14.01,2013-07-01 08:14:00,
2013-07-01 04:19:00,64.4,58.8,29.83,NNE,32,0.0,0.0,82,0.04,,---,0.04,VWS V14.01,2013-07-01 08:19:00,
2013-07-01 04:24:00,64.4,58.8,29.83,NNE,32,0.0,0.0,82,0.04,,---,0.04,VWS V14.01,2013-07-01 08:24:00,
2013-07-01 04:29:00,64.4,58.8,29.83,ENE,66,0.0,0.0,82,0.04,,---,0.04,VWS V14.01,2013-07-01 08:29:00,
2013-07-01 04:34:00,64.4,58.8,29.83,ENE,66,0.0,0.0,82,0.04,,---,0.04,VWS V14.01,2013-07-01 08:34:00,
2013-07-01 04:39:00,64.4,58.8,29.83,ENE,66,0.0,0.0,82,0.04,,---,0.04,VWS V14.01,2013-07-01 08:39:00,
2013-07-01 04:44:00,64.4,58.8,29.83,ENE,66,0.0,0.0,82,0.04,,---,0.04,VWS V14.01,2013-07-01 08:44:00,
2013-07-01 04:49:00,64.4,58.8,29.83,ENE,66,0.0,0.0,82,0.00,,---,0.04,VWS V14.01,2013-07-01 08:49:00,
2013-07-01 04:54:00,64.6,59.0,29.83,ENE,66,0.0,0.0,82,0.00,,---,0.04,VWS V14.01,2013-07-01 08:54:00,
2013-07-01 04:59:00,64.6,59.0,29.86,ENE,66,0.0,0.0,82,0.00,,---,0.04,VWS V14.01,2013-07-01 08:59:00,
2013-07-01 05:04:00,64.6,59.0,29.86,ENE,66,0.0,0.0,82,0.00,,---,0.04,VWS V14.01,2013-07-01 09:04:00,
2013-07-01 05:09:00,64.8,59.5,29.86,ENE,66,0.0,0.0,83,0.00,,---,0.04,VWS V14.01,2013-07-01 09:09:00,
2013-07-01 05:14:00,64.8,59.5,29.86,ENE,66,0.0,0.0,83,0.00,,---,0.04,VWS V14.01,2013-07-01 09:14:00,
2013-07-01 05:20:00,64.8,59.5,29.86,ENE,66,0.0,0.0,83,0.00,,---,0.04,VWS V14.01,2013-07-01 09:20:00,
2013-07-01 05:25:00,64.8,59.5,29.86,ENE,66,0.0,0.0,83,0.00,,---,0.04,VWS V14.01,2013-07-01 09:25:00,
2013-07-01 05:30:00,64.8,59.5,29.86,ENE,66,0.0,0.0,83,0.00,,---,0.04,VWS V14.01,2013-07-01 09:30:00,
2013-07-01 05:35:00,64.8,59.5,29.86,ENE,66,0.0,0.0,83,0.00,,---,0.04,VWS V14.01,2013-07-01 09:35:00,
2013-07-01 05:40:00,64.9,59.7,29.86,ENE,66,0.0,0.0,83,0.00,,---,0.04,VWS V14.01,2013-07-01 09:40:00,
2013-07-01 05:45:00,64.9,59.7,29.86,ENE,66,0.0,0.0,83,0.00,,---,0.04,VWS V14.01,2013-07-01 09:45:00,
2013-07-01 05:50:00,64.9,59.7,29.86,ENE,66,0.0,0.0,83,0.00,,---,0.04,VWS V14.01,2013-07-01 09:50:00,
2013-07-01 05:55:00,64.9,59.7,29.86,ENE,66,0.0,0.0,83,0.00,,---,0.04,VWS V14.01,2013-07-01 09:55:00,
2013-07-01 06:00:00,64.8,59.5,29.86,ENE,66,0.0,0.0,83,0.00,,---,0.04,VWS V14.01,2013-07-01 10:00:00,
2013-07-01 06:05:00,64.8,59.5,29.86,ENE,66,0.0,0.0,83,0.00,,---,0.04,VWS V14.01,2013-07-01 10:05:00,
2013-07-01 06:10:00,64.9,59.7,29.86,ENE,66,0.0,0.0,83,0.00,,---,0.04,VWS V14.01,2013-07-01 10:10:00,
2013-07-01 06:15:00,64.9,59.7,29.86,ENE,66,0.0,0.0,83,0.00,,---,0.04,VWS V14.01,2013-07-01 10:15:00,
2013-07-01 06:20:00,65.1,60.2,29.86,ENE,66,0.0,0.0,84,0.00,,---,0.04,VWS V14.01,2013-07-01 10:20:00,
2013-07-01 06:25:00,65.1,60.2,29.86,ENE,66,0.0,0.0,84,0.00,,---,0.04,VWS V14.01,2013-07-01 10:25:00,
2013-07-01 06:30:00,65.1,60.2,29.86,ENE,66,0.0,0.0,84,0.00,,---,0.04,VWS V14.01,2013-07-01 10:30:00,
2013-07-01 06:35:00,65.3,60.3,29.86,ENE,66,0.0,0.0,84,0.00,,---,0.04,VWS V14.01,2013-07-01 10:35:00,
2013-07-01 06:40:00,65.3,60.3,29.86,ENE,66,0.0,0.0,84,0.00,,---,0.04,VWS V14.01,2013-07-01 10:40:00,
2013-07-01 06:42:00,65.3,60.3,29.86,ENE,66,0.0,0.0,84,0.00,,---,0.04,VWS V14.01,2013-07-01 10:42:00,
2013-07-01 06:47:00,65.3,60.3,29.86,ENE,66,0.0,0.0,84,0.00,,---,0.04,VWS V14.01,2013-07-01 10:47:00,
2013-07-01 06:52:00,65.5,60.5,29.86,ENE,66,0.0,0.0,84,0.00,,---,0.04,VWS V14.01,2013-07-01 10:52:00,
2013-07-01 06:57:00,65.5,60.5,29.86,ENE,66,0.0,0.0,84,0.00,,---,0.04,VWS V14.01,2013-07-01 10:57:00,
2013-07-01 07:02:00,65.5,60.5,29.86,ENE,66,0.0,0.0,84,0.00,,---,0.04,VWS V14.01,2013-07-01 11:02:00,
2013-07-01 07:07:00,65.7,61.0,29.86,ENE,66,0.0,0.0,85,0.00,,---,0.04,VWS V14.01,2013-07-01 11:07:00,
2013-07-01 07:12:00,65.7,61.0,29.86,ENE,66,0.0,0.0,85,0.00,,---,0.04,VWS V14.01,2013-07-01 11:12:00,
2013-07-01 07:17:00,65.7,60.7,29.86,ENE,66,0.0,0.0,84,0.00,,---,0.04,VWS V14.01,2013-07-01 11:17:00,
2013-07-01 07:22:00,65.7,60.7,29.86,ENE,66,0.0,0.0,84,0.00,,---,0.04,VWS V14.01,2013-07-01 11:22:00,
2013-07-01 07:27:00,65.7,60.7,29.86,ENE,66,0.0,0.0,84,0.00,,---,0.04,VWS V14.01,2013-07-01 11:27:00,
2013-07-01 07:32:00,65.7,60.7,29.89,ENE,66,0.0,0.0,84,0.00,,---,0.04,VWS V14.01,2013-07-01 11:32:00,
2013-07-01 07:37:00,65.7,61.0,29.89,ENE,66,0.0,0.0,85,0.00,,---,0.04,VWS V14.01,2013-07-01 11:37:00,
2013-07-01 07:42:00,66.0,61.4,29.89,ENE,66,0.0,0.0,85,0.00,,---,0.04,VWS V14.01,2013-07-01 11:42:00,
2013-07-01 07:47:00,66.2,61.6,29.89,ENE,66,0.0,0.0,85,0.00,,---,0.04,VWS V14.01,2013-07-01 11:47:00,
2013-07-01 07:52:00,66.6,61.9,29.89,ENE,66,0.0,0.0,85,0.00,,---,0.04,VWS V14.01,2013-07-01 11:52:00,
2013-07-01 07:57:00,66.7,62.1,29.89,ENE,66,0.0,0.0,85,0.00,,---,0.04,VWS V14.01,2013-07-01 11:57:00,
2013-07-01 08:02:00,66.7,62.1,29.89,ENE,66,0.0,0.0,85,0.00,,---,0.04,VWS V14.01,2013-07-01 12:02:00,
2013-07-01 08:08:00,66.7,62.1,29.89,ENE,66,0.0,0.0,85,0.00,,---,0.04,VWS V14.01,2013-07-01 12:08:00,
2013-07-01 08:13:00,66.9,62.3,29.89,ENE,66,0.0,0.0,85,0.00,,---,0.04,VWS V14.01,2013-07-01 12:13:00,
2013-07-01 08:18:00,67.1,62.8,29.89,ENE,66,0.0,0.0,86,0.00,,---,0.04,VWS V14.01,2013-07-01 12:18:00,
2013-07-01 08:23:00,67.3,63.0,29.89,ENE,66,0.0,0.0,86,0.00,,---,0.04,VWS V14.01,2013-07-01 12:23:00,
2013-07-01 08:28:00,67.3,63.0,29.89,ENE,66,0.0,0.0,86,0.00,,---,0.04,VWS V14.01,2013-07-01 12:28:00,
2013-07-01 08:33:00,67.5,63.1,29.89,ENE,66,0.0,0.0,86,0.00,,---,0.04,VWS V14.01,2013-07-01 12:33:00,
2013-07-01 08:38:00,67.6,63.3,29.89,ENE,66,0.0,0.0,86,0.00,,---,0.04,VWS V14.01,2013-07-01 12:38:00,
2013-07-01 08:43:00,67.8,63.5,29.89,ENE,66,0.0,0.0,86,0.00,,---,0.04,VWS V14.01,2013-07-01 12:43:00,
2013-07-01 08:48:00,67.8,63.5,29.89,SSW,205,0.0,0.0,86,0.00,,---,0.04,VWS V14.01,2013-07-01 12:48:00,
2013-07-01 08:53:00,68.0,63.7,29.89,SSW,205,0.0,0.0,86,0.00,,---,0.04,VWS V14.01,2013-07-01 12:53:00,
2013-07-01 08:58:00,68.2,63.8,29.89,SSW,205,0.0,0.0,86,0.00,,---,0.04,VWS V14.01,2013-07-01 12:58:00,
2013-07-01 09:03:00,68.0,63.7,29.89,SSW,205,0.0,0.0,86,0.00,,---,0.04,VWS V14.01,2013-07-01 13:03:00,
2013-07-01 09:08:00,68.2,63.8,29.89,SSW,205,0.0,0.0,86,0.00,,---,0.04,VWS V14.01,2013-07-01 13:08:00,
2013-07-01 09:13:00,68.2,63.8,29.89,SW,215,0.0,0.0,86,0.00,,---,0.04,VWS V14.01,2013-07-01 13:13:00,
2013-07-01 09:18:00,68.2,64.2,29.89,SW,215,0.0,0.0,87,0.00,,---,0.04,VWS V14.01,2013-07-01 13:18:00,
2013-07-01 09:23:00,68.2,64.2,29.89,SW,215,0.0,0.0,87,0.00,,---,0.04,VWS V14.01,2013-07-01 13:23:00,
2013-07-01 09:28:00,68.2,64.2,29.89,SW,215,0.0,0.0,87,0.00,,---,0.04,VWS V14.01,2013-07-01 13:28:00,
2013-07-01 09:34:00,68.5,64.5,29.89,SW,215,0.0,0.0,87,0.00,,---,0.04,VWS V14.01,2013-07-01 13:34:00,
2013-07-01 09:39:00,68.7,64.7,29.89,SW,215,0.0,0.0,87,0.00,,---,0.04,VWS V14.01,2013-07-01 13:39:00,
2013-07-01 09:44:00,69.1,65.4,29.89,SW,215,0.0,0.0,88,0.00,,---,0.04,VWS V14.01,2013-07-01 13:44:00,
2013-07-01 09:49:00,69.3,65.6,29.89,SW,215,0.0,0.0,88,0.00,,---,0.04,VWS V14.01,2013-07-01 13:49:00,
2013-07-01 09:54:00,69.8,66.1,29.89,SW,215,0.0,0.0,88,0.00,,---,0.04,VWS V14.01,2013-07-01 13:54:00,
2013-07-01 09:59:00,70.0,66.3,29.89,SW,215,0.0,0.0,88,0.00,,---,0.04,VWS V14.01,2013-07-01 13:59:00,
2013-07-01 10:04:00,70.5,66.8,29.89,SW,215,0.0,0.0,88,0.00,,---,0.04,VWS V14.01,2013-07-01 14:04:00,
2013-07-01 10:09:00,70.7,67.0,29.89,SW,215,0.0,0.0,88,0.00,,---,0.04,VWS V14.01,2013-07-01 14:09:00,
2013-07-01 10:14:00,70.7,67.0,29.89,SW,215,0.0,0.0,88,0.00,,---,0.04,VWS V14.01,2013-07-01 14:14:00,
2013-07-01 10:19:00,70.9,67.2,29.89,SW,215,0.0,0.0,88,0.00,,---,0.04,VWS V14.01,2013-07-01 14:19:00,
2013-07-01 10:24:00,70.7,67.0,29.89,SW,215,0.0,0.0,88,0.00,,---,0.04,VWS V14.01,2013-07-01 14:24:00,
2013-07-01 10:26:00,70.7,67.0,29.89,SW,215,0.0,0.0,88,0.00,,---,0.04,VWS V14.01,2013-07-01 14:26:00,
2013-07-01 10:31:00,70.9,67.2,29.89,SW,215,0.0,0.0,88,0.00,,---,0.04,VWS V14.01,2013-07-01 14:31:00,
2013-07-01 10:36:00,70.7,67.0,29.89,SW,215,0.0,0.0,88,0.00,,---,0.04,VWS V14.01,2013-07-01 14:36:00,
2013-07-01 10:41:00,70.7,66.7,29.89,SW,215,0.0,0.0,87,0.00,,---,0.04,VWS V14.01,2013-07-01 14:41:00,
2013-07-01 10:46:00,71.1,67.3,29.89,SW,235,3.6,3.6,88,0.00,,---,0.04,VWS V14.01,2013-07-01 14:46:00,
2013-07-01 10:52:00,72.0,67.9,29.89,West,281,2.2,3.6,87,0.00,,---,0.04,VWS V14.01,2013-07-01 14:52:00,
2013-07-01 10:57:00,72.5,67.1,29.89,WNW,295,7.6,7.6,83,0.00,,---,0.04,VWS V14.01,2013-07-01 14:57:00,
2013-07-01 11:02:00,72.0,62.0,29.89,WNW,301,3.6,6.3,71,0.00,,---,0.04,VWS V14.01,2013-07-01 15:02:00,
2013-07-01 11:07:00,71.1,60.4,29.89,NNW,348,0.0,4.0,69,0.00,,---,0.04,VWS V14.01,2013-07-01 15:07:00,
2013-07-01 11:12:00,70.0,56.8,29.89,WNW,283,3.6,4.0,63,0.00,,---,0.04,VWS V14.01,2013-07-01 15:12:00,
2013-07-01 11:17:00,69.8,57.1,29.89,WNW,291,2.7,3.1,64,0.00,,---,0.04,VWS V14.01,2013-07-01 15:17:00,
2013-07-01 11:22:00,70.0,57.3,29.89,NW,312,4.0,5.8,64,0.00,,---,0.04,VWS V14.01,2013-07-01 15:22:00,
2013-07-01 11:27:00,70.2,57.4,29.89,West,272,0.0,5.8,64,0.00,,---,0.04,VWS V14.01,2013-07-01 15:27:00,
2013-07-01 11:32:00,70.2,56.5,29.92,NNE,27,4.0,4.0,62,0.00,,---,0.04,VWS V14.01,2013-07-01 15:32:00,
2013-07-01 11:37:00,70.2,56.5,29.92,NNW,327,0.0,0.0,62,0.00,,---,0.04,VWS V14.01,2013-07-01 15:37:00,
2013-07-01 11:42:00,70.2,56.1,29.92,NE,39,5.4,5.4,61,0.00,,---,0.04,VWS V14.01,2013-07-01 15:42:00,
2013-07-01 11:48:00,70.3,55.3,29.92,WSW,254,0.0,0.0,59,0.00,,---,0.04,VWS V14.01,2013-07-01 15:48:00,
2013-07-01 11:53:00,70.7,55.7,29.92,NNE,33,0.0,3.1,59,0.00,,---,0.04,VWS V14.01,2013-07-01 15:53:00,
2013-07-01 11:58:00,70.7,55.2,29.92,West,259,0.0,0.0,58,0.00,,---,0.04,VWS V14.01,2013-07-01 15:58:00,
2013-07-01 12:03:00,71.1,55.5,29.89,NE,35,4.0,5.4,58,0.00,,---,0.04,VWS V14.01,2013-07-01 16:03:00,
2013-07-01 12:08:00,71.1,54.6,29.89,NW,323,0.0,3.6,56,0.00,,---,0.04,VWS V14.01,2013-07-01 16:08:00,
2013-07-01 12:13:00,71.2,54.3,29.89,WNW,285,2.7,2.7,55,0.00,,---,0.04,VWS V14.01,2013-07-01 16:13:00,
2013-07-01 12:18:00,71.4,54.4,29.92,WSW,255,2.7,3.6,55,0.00,,---,0.04,VWS V14.01,2013-07-01 16:18:00,
2013-07-01 12:23:00,71.6,54.6,29.92,WSW,258,0.0,0.0,55,0.00,,---,0.04,VWS V14.01,2013-07-01 16:23:00,
2013-07-01 12:28:00,71.8,56.2,29.92,NW,311,0.0,0.0,58,0.00,,---,0.04,VWS V14.01,2013-07-01 16:28:00,
2013-07-01 12:33:00,71.4,54.4,29.92,West,265,3.1,7.2,55,0.00,,---,0.04,VWS V14.01,2013-07-01 16:33:00,
2013-07-01 12:38:00,71.6,52.5,29.92,SW,220,2.2,3.1,51,0.00,,---,0.04,VWS V14.01,2013-07-01 16:38:00,
2013-07-01 12:43:00,72.1,53.0,29.92,WNW,297,4.9,4.9,51,0.00,,---,0.04,VWS V14.01,2013-07-01 16:43:00,
2013-07-01 12:48:00,72.5,51.2,29.89,North,357,4.0,4.0,47,0.00,,---,0.04,VWS V14.01,2013-07-01 16:48:00,
2013-07-01 12:53:00,72.5,50.6,29.89,NE,47,2.2,2.7,46,0.00,,---,0.04,VWS V14.01,2013-07-01 16:53:00,
2013-07-01 12:58:00,72.5,51.7,29.89,NNW,336,2.2,5.4,48,0.00,,---,0.04,VWS V14.01,2013-07-01 16:58:00,
2013-07-01 13:03:00,72.3,51.0,29.89,NW,307,3.1,3.1,47,0.00,,---,0.04,VWS V14.01,2013-07-01 17:03:00,
2013-07-01 13:08:00,72.5,52.3,29.89,NE,50,3.6,3.6,49,0.00,,---,0.04,VWS V14.01,2013-07-01 17:08:00,
2013-07-01 13:13:00,72.9,52.0,29.89,SSW,203,0.0,3.1,48,0.00,,---,0.04,VWS V14.01,2013-07-01 17:13:00,
2013-07-01 13:19:00,73.2,52.4,29.89,ESE,115,0.0,3.6,48,0.00,,---,0.04,VWS V14.01,2013-07-01 17:19:00,
2013-07-01 13:24:00,73.6,51.0,29.89,NE,54,2.7,2.7,45,0.00,,---,0.04,VWS V14.01,2013-07-01 17:24:00,
2013-07-01 13:29:00,74.1,52.0,29.89,West,270,0.0,0.0,46,0.00,,---,0.04,VWS V14.01,2013-07-01 17:29:00,
2013-07-01 13:34:00,74.1,50.2,29.89,SSW,205,4.0,4.9,43,0.00,,---,0.04,VWS V14.01,2013-07-01 17:34:00,
2013-07-01 13:39:00,73.9,50.7,29.89,SW,231,3.1,4.0,44,0.00,,---,0.04,VWS V14.01,2013-07-01 17:39:00,
2013-07-01 13:44:00,73.8,50.5,29.89,West,265,5.4,5.4,44,0.00,,---,0.04,VWS V14.01,2013-07-01 17:44:00,
2013-07-01 13:49:00,73.4,49.6,29.89,West,264,0.0,2.2,43,0.00,,---,0.04,VWS V14.01,2013-07-01 17:49:00,
2013-07-01 13:54:00,73.2,50.6,29.89,North,357,0.0,0.0,45,0.00,,---,0.04,VWS V14.01,2013-07-01 17:54:00,
2013-07-01 13:59:00,72.9,50.3,29.89,West,265,5.8,5.8,45,0.00,,---,0.04,VWS V14.01,2013-07-01 17:59:00,
2013-07-01 14:04:00,72.9,50.9,29.89,ENE,78,2.7,2.7,46,0.00,,---,0.04,VWS V14.01,2013-07-01 18:04:00,
2013-07-01 14:09:00,72.9,50.9,29.89,NNW,348,0.0,3.6,46,0.00,,---,0.04,VWS V14.01,2013-07-01 18:09:00,
2013-07-01 14:14:00,72.9,50.3,29.89,West,261,3.1,3.6,45,0.00,,---,0.04,VWS V14.01,2013-07-01 18:14:00,
2013-07-01 14:19:00,72.9,50.9,29.89,West,280,3.6,3.6,46,0.00,,---,0.04,VWS V14.01,2013-07-01 18:19:00,
2013-07-01 14:24:00,73.2,51.8,29.89,West,277,0.0,0.0,47,0.00,,---,0.04,VWS V14.01,2013-07-01 18:24:00,
2013-07-01 14:29:00,73.4,52.0,29.89,West,270,5.4,5.8,47,0.00,,---,0.04,VWS V14.01,2013-07-01 18:29:00,
2013-07-01 14:34:00,74.5,51.8,29.89,WNW,286,5.4,5.4,45,0.00,,---,0.04,VWS V14.01,2013-07-01 18:34:00,
2013-07-01 14:39:00,75.0,50.4,29.89,West,261,5.4,5.4,42,0.00,,---,0.04,VWS V14.01,2013-07-01 18:39:00,
2013-07-01 14:44:00,75.4,49.4,29.89,NW,305,3.6,8.3,40,0.00,,---,0.04,VWS V14.01,2013-07-01 18:44:00,
2013-07-01 14:49:00,75.4,50.1,29.89,South,174,2.7,4.0,41,0.00,,---,0.04,VWS V14.01,2013-07-01 18:49:00,
2013-07-01 14:54:00,75.9,50.5,29.89,NW,312,8.1,10.1,41,0.00,,---,0.04,VWS V14.01,2013-07-01 18:54:00,
2013-07-01 15:00:00,76.6,48.4,29.89,NW,304,4.0,4.5,37,0.00,,---,0.04,VWS V14.01,2013-07-01 19:00:00,
2013-07-01 15:05:00,77.0,49.5,29.89,NW,322,2.7,3.1,38,0.00,,---,0.04,VWS V14.01,2013-07-01 19:05:00,
2013-07-01 15:10:00,77.2,49.6,29.89,West,280,4.0,5.4,38,0.00,,---,0.04,VWS V14.01,2013-07-01 19:10:00,
2013-07-01 15:15:00,77.5,50.0,29.89,WSW,251,2.7,4.0,38,0.00,,---,0.04,VWS V14.01,2013-07-01 19:15:00,
2013-07-01 15:20:00,77.9,48.8,29.89,North,353,3.1,3.6,36,0.00,,---,0.04,VWS V14.01,2013-07-01 19:20:00,
2013-07-01 15:25:00,77.7,47.9,29.89,NNW,327,3.6,3.6,35,0.00,,---,0.04,VWS V14.01,2013-07-01 19:25:00,
2013-07-01 15:30:00,77.9,49.6,29.89,North,0,5.4,5.4,37,0.00,,---,0.04,VWS V14.01,2013-07-01 19:30:00,
2013-07-01 15:35:00,78.1,47.5,29.89,NW,322,5.4,5.4,34,0.00,,---,0.04,VWS V14.01,2013-07-01 19:35:00,
2013-07-01 15:40:00,77.5,48.5,29.89,West,270,2.2,2.2,36,0.00,,---,0.04,VWS V14.01,2013-07-01 19:40:00,
2013-07-01 15:45:00,77.4,47.6,29.89,WNW,293,2.2,2.2,35,0.00,,---,0.04,VWS V14.01,2013-07-01 19:45:00,
2013-07-01 15:50:00,77.9,48.1,29.89,WNW,299,4.0,4.0,35,0.00,,---,0.04,VWS V14.01,2013-07-01 19:50:00,
2013-07-01 15:55:00,77.9,48.1,29.89,SSW,196,5.8,5.8,35,0.00,,---,0.04,VWS V14.01,2013-07-01 19:55:00,
2013-07-01 16:00:00,77.2,47.4,29.89,NNE,24,4.9,4.9,35,0.00,,---,0.04,VWS V14.01,2013-07-01 20:00:00,
2013-07-01 16:05:00,76.8,47.9,29.89,WNW,303,3.6,8.3,36,0.00,,---,0.04,VWS V14.01,2013-07-01 20:05:00,
2013-07-01 16:10:00,77.0,48.0,29.89,NW,310,3.6,3.6,36,0.00,,---,0.04,VWS V14.01,2013-07-01 20:10:00,
2013-07-01 16:16:00,77.2,49.6,29.89,North,8,4.9,4.9,38,0.00,,---,0.04,VWS V14.01,2013-07-01 20:16:00,
2013-07-01 16:21:00,77.0,48.0,29.89,NNW,330,6.3,6.3,36,0.00,,---,0.04,VWS V14.01,2013-07-01 20:21:00,
2013-07-01 16:26:00,76.8,48.6,29.89,WNW,292,4.0,4.0,37,0.00,,---,0.04,VWS V14.01,2013-07-01 20:26:00,
2013-07-01 16:31:00,76.1,49.4,29.89,WNW,286,3.1,3.1,39,0.00,,---,0.04,VWS V14.01,2013-07-01 20:31:00,
2013-07-01 16:36:00,75.9,49.9,29.89,West,278,8.3,8.3,40,0.00,,---,0.04,VWS V14.01,2013-07-01 20:36:00,
2013-07-01 16:41:00,76.1,50.0,29.89,West,281,2.7,5.4,40,0.00,,---,0.04,VWS V14.01,2013-07-01 20:41:00,
2013-07-01 16:46:00,76.5,47.5,29.89,NW,311,7.6,7.6,36,0.00,,---,0.04,VWS V14.01,2013-07-01 20:46:00,
2013-07-01 16:51:00,76.6,47.7,29.89,West,275,12.3,12.3,36,0.00,,---,0.04,VWS V14.01,2013-07-01 20:51:00,
2013-07-01 16:56:00,77.0,47.3,29.89,SW,221,5.8,7.6,35,0.00,,---,0.04,VWS V14.01,2013-07-01 20:56:00,
2013-07-01 17:01:00,77.2,46.7,29.89,WNW,295,5.8,7.2,34,0.00,,---,0.04,VWS V14.01,2013-07-01 21:01:00,
2013-07-01 17:06:00,77.2,47.4,29.89,NW,308,5.8,7.6,35,0.00,,---,0.04,VWS V14.01,2013-07-01 21:06:00,
2013-07-01 17:07:00,77.2,47.4,29.89,West,273,14.5,14.5,35,0.00,,---,0.04,VWS V14.01,2013-07-01 21:07:00,
2013-07-01 17:12:00,77.0,47.3,29.89,NW,308,5.4,6.3,35,0.00,,---,0.04,VWS V14.01,2013-07-01 21:12:00,
2013-07-01 17:17:00,77.2,48.2,29.89,West,275,7.6,8.3,36,0.00,,---,0.04,VWS V14.01,2013-07-01 21:17:00,
2013-07-01 17:22:00,77.4,47.6,29.89,SW,230,10.1,10.1,35,0.00,,---,0.04,VWS V14.01,2013-07-01 21:22:00,
2013-07-01 17:27:00,76.6,47.0,29.89,SW,224,8.7,8.7,35,0.00,,---,0.04,VWS V14.01,2013-07-01 21:27:00,
2013-07-01 17:32:00,76.3,47.4,29.89,WNW,288,3.1,5.4,36,0.00,,---,0.04,VWS V14.01,2013-07-01 21:32:00,
2013-07-01 17:37:00,76.8,48.6,29.89,West,278,4.0,4.0,37,0.00,,---,0.04,VWS V14.01,2013-07-01 21:37:00,
2013-07-01 17:42:00,77.4,46.8,29.89,NW,306,5.4,7.6,34,0.00,,---,0.04,VWS V14.01,2013-07-01 21:42:00,
2013-07-01 17:47:00,77.9,48.1,29.89,North,353,3.6,8.7,35,0.00,,---,0.04,VWS V14.01,2013-07-01 21:47:00,
2013-07-01 17:52:00,78.1,48.2,29.89,South,189,4.9,5.8,35,0.00,,---,0.04,VWS V14.01,2013-07-01 21:52:00,
2013-07-01 17:57:00,77.5,47.8,29.89,NW,314,6.3,6.7,35,0.00,,---,0.04,VWS V14.01,2013-07-01 21:57:00,
2013-07-01 18:02:00,76.6,48.4,29.89,West,279,3.1,5.8,37,0.00,,---,0.04,VWS V14.01,2013-07-01 22:02:00,
2013-07-01 18:08:00,75.9,49.2,29.89,NW,310,3.1,10.1,39,0.00,,---,0.04,VWS V14.01,2013-07-01 22:08:00,
2013-07-01 18:13:00,75.2,50.6,29.89,WSW,254,5.8,5.8,42,0.00,,---,0.04,VWS V14.01,2013-07-01 22:13:00,
2013-07-01 18:18:00,75.0,50.4,29.89,WNW,285,5.4,8.7,42,0.00,,---,0.04,VWS V14.01,2013-07-01 22:18:00,
2013-07-01 18:23:00,74.7,50.1,29.89,WNW,302,6.3,6.3,42,0.00,,---,0.04,VWS V14.01,2013-07-01 22:23:00,
2013-07-01 18:28:00,74.5,50.5,29.89,WSW,253,6.3,6.3,43,0.00,,---,0.04,VWS V14.01,2013-07-01 22:28:00,
2013-07-01 18:33:00,74.3,51.0,29.89,WSW,256,5.8,6.7,44,0.00,,---,0.04,VWS V14.01,2013-07-01 22:33:00,
2013-07-01 18:38:00,74.1,50.8,29.89,NW,313,4.9,8.3,44,0.00,,---,0.04,VWS V14.01,2013-07-01 22:38:00,
2013-07-01 18:43:00,74.3,51.0,29.89,WSW,237,3.6,8.3,44,0.00,,---,0.04,VWS V14.01,2013-07-01 22:43:00,
2013-07-01 18:48:00,74.7,51.3,29.89,West,260,8.1,10.5,44,0.00,,---,0.04,VWS V14.01,2013-07-01 22:48:00,
2013-07-01 18:53:00,75.0,51.7,29.89,NW,310,7.6,7.6,44,0.00,,---,0.04,VWS V14.01,2013-07-01 22:53:00,
2013-07-01 18:58:00,74.8,50.2,29.89,ESE,117,3.1,3.1,42,0.00,,---,0.04,VWS V14.01,2013-07-01 22:58:00,
2013-07-01 19:03:00,74.1,50.2,29.89,WSW,254,2.7,2.7,43,0.00,,---,0.04,VWS V14.01,2013-07-01 23:03:00,
2013-07-01 19:08:00,73.9,50.7,29.89,WSW,244,0.0,2.2,44,0.00,,---,0.04,VWS V14.01,2013-07-01 23:08:00,
2013-07-01 19:13:00,73.8,51.1,29.89,West,263,4.0,6.3,45,0.00,,---,0.04,VWS V14.01,2013-07-01 23:13:00,
2013-07-01 19:18:00,73.6,51.0,29.89,NNW,341,6.3,6.3,45,0.00,,---,0.04,VWS V14.01,2013-07-01 23:18:00,
2013-07-01 19:23:00,73.4,50.8,29.89,West,278,3.6,4.0,45,0.00,,---,0.04,VWS V14.01,2013-07-01 23:23:00,
2013-07-01 19:28:00,73.4,50.8,29.89,WNW,303,0.0,0.0,45,0.00,,---,0.04,VWS V14.01,2013-07-01 23:28:00,
2013-07-01 19:33:00,73.4,51.4,29.92,West,279,3.1,3.1,46,0.00,,---,0.04,VWS V14.01,2013-07-01 23:33:00,
2013-07-01 19:38:00,73.2,51.2,29.92,WNW,301,7.6,7.6,46,0.00,,---,0.04,VWS V14.01,2013-07-01 23:38:00,
2013-07-01 19:44:00,73.0,51.1,29.92,North,353,3.6,3.6,46,0.00,,---,0.04,VWS V14.01,2013-07-01 23:44:00,
2013-07-01 19:49:00,72.7,50.7,29.92,WNW,293,4.0,4.9,46,0.00,,---,0.04,VWS V14.01,2013-07-01 23:49:00,
2013-07-01 19:54:00,72.5,50.6,29.92,West,272,12.3,12.8,46,0.00,,---,0.04,VWS V14.01,2013-07-01 23:54:00,
2013-07-01 19:59:00,72.5,50.0,29.92,West,261,15.4,15.4,45,0.00,,---,0.04,VWS V14.01,2013-07-01 23:59:00,
2013-07-01 20:04:00,72.3,50.4,29.92,West,270,6.7,8.7,46,0.00,,---,0.04,VWS V14.01,2013-07-02 00:04:00,
2013-07-01 20:09:00,72.1,50.2,29.92,NW,313,6.3,6.3,46,0.00,,---,0.04,VWS V14.01,2013-07-02 00:09:00,
2013-07-01 20:14:00,72.1,50.8,29.92,WSW,251,2.7,6.7,47,0.00,,---,0.04,VWS V14.01,2013-07-02 00:14:00,
2013-07-01 20:19:00,72.0,50.7,29.92,West,274,8.1,8.1,47,0.00,,---,0.04,VWS V14.01,2013-07-02 00:19:00,
2013-07-01 20:24:00,72.0,51.2,29.92,NW,323,8.3,8.3,48,0.00,,---,0.04,VWS V14.01,2013-07-02 00:24:00,
2013-07-01 20:29:00,72.0,51.2,29.95,North,0,2.7,2.7,48,0.00,,---,0.04,VWS V14.01,2013-07-02 00:29:00,
2013-07-01 20:34:00,72.0,51.2,29.95,West,261,8.7,8.7,48,0.00,,---,0.04,VWS V14.01,2013-07-02 00:34:00,
2013-07-01 20:39:00,72.0,51.2,29.95,West,274,2.7,2.7,48,0.00,,---,0.04,VWS V14.01,2013-07-02 00:39:00,
2013-07-01 20:44:00,71.8,51.1,29.95,SW,229,3.1,3.1,48,0.00,,---,0.04,VWS V14.01,2013-07-02 00:44:00,
2013-07-01 20:49:00,72.0,51.2,29.95,WSW,258,4.0,5.4,48,0.00,,---,0.04,VWS V14.01,2013-07-02 00:49:00,
2013-07-01 20:54:00,71.8,51.1,29.95,WSW,239,8.7,8.7,48,0.00,,---,0.04,VWS V14.01,2013-07-02 00:54:00,
2013-07-01 20:59:00,71.8,51.1,29.95,WNW,296,0.0,2.7,48,0.00,,---,0.04,VWS V14.01,2013-07-02 00:59:00,
2013-07-01 21:04:00,71.6,51.5,29.95,NNW,338,4.5,5.4,49,0.00,,---,0.04,VWS V14.01,2013-07-02 01:04:00,
2013-07-01 21:09:00,71.6,51.5,29.95,West,280,4.0,5.4,49,0.00,,---,0.04,VWS V14.01,2013-07-02 01:09:00,
2013-07-01 21:14:00,71.4,51.3,29.95,NW,308,3.6,4.9,49,0.00,,---,0.04,VWS V14.01,2013-07-02 01:14:00,
2013-07-01 21:19:00,71.6,51.5,29.95,WNW,291,3.6,3.6,49,0.00,,---,0.04,VWS V14.01,2013-07-02 01:19:00,
2013-07-01 21:24:00,71.4,51.3,29.95,NW,307,3.6,3.6,49,0.00,,---,0.04,VWS V14.01,2013-07-02 01:24:00,
2013-07-01 21:30:00,71.4,51.8,29.95,NNE,30,0.0,5.4,50,0.00,,---,0.04,VWS V14.01,2013-07-02 01:30:00,
2013-07-01 21:35:00,71.2,51.7,29.95,West,271,0.0,3.1,50,0.00,,---,0.04,VWS V14.01,2013-07-02 01:35:00,
2013-07-01 21:40:00,71.1,51.5,29.95,NNW,333,3.6,6.3,50,0.00,,---,0.04,VWS V14.01,2013-07-02 01:40:00,
2013-07-01 21:45:00,71.2,51.7,29.95,WNW,298,3.6,4.0,50,0.00,,---,0.04,VWS V14.01,2013-07-02 01:45:00,
2013-07-01 21:50:00,71.2,52.2,29.95,ENE,62,3.1,3.1,51,0.00,,---,0.04,VWS V14.01,2013-07-02 01:50:00,
2013-07-01 21:55:00,71.1,51.5,29.95,SW,233,2.2,2.2,50,0.00,,---,0.04,VWS V14.01,2013-07-02 01:55:00,
2013-07-01 22:00:00,71.2,52.2,29.95,West,269,12.8,12.8,51,0.00,,---,0.04,VWS V14.01,2013-07-02 02:00:00,
2013-07-01 22:05:00,71.2,52.2,29.95,SSW,199,3.1,3.1,51,0.00,,---,0.04,VWS V14.01,2013-07-02 02:05:00,
2013-07-01 22:10:00,71.2,52.2,29.95,NW,304,5.4,8.1,51,0.00,,---,0.04,VWS V14.01,2013-07-02 02:10:00,
2013-07-01 22:15:00,70.9,52.4,29.95,WNW,291,5.8,5.8,52,0.00,,---,0.04,VWS V14.01,2013-07-02 02:15:00,
2013-07-01 22:20:00,70.9,52.9,29.95,WNW,296,3.1,4.0,53,0.00,,---,0.04,VWS V14.01,2013-07-02 02:20:00,
2013-07-01 22:25:00,70.9,52.9,29.95,NNW,338,4.9,4.9,53,0.00,,---,0.04,VWS V14.01,2013-07-02 02:25:00,
2013-07-01 22:30:00,70.7,53.3,29.95,WNW,282,2.7,4.0,54,0.00,,---,0.04,VWS V14.01,2013-07-02 02:30:00,
2013-07-01 22:35:00,70.7,53.3,29.95,NW,320,3.6,4.0,54,0.00,,---,0.04,VWS V14.01,2013-07-02 02:35:00,
2013-07-01 22:40:00,70.9,53.9,29.95,West,267,4.0,6.3,55,0.00,,---,0.04,VWS V14.01,2013-07-02 02:40:00,
2013-07-01 22:45:00,71.1,54.1,29.95,WNW,285,4.9,4.9,55,0.00,,---,0.04,VWS V14.01,2013-07-02 02:45:00,
2013-07-01 22:50:00,71.1,54.1,29.95,WNW,296,7.6,7.6,55,0.00,,---,0.04,VWS V14.01,2013-07-02 02:50:00,
2013-07-01 22:55:00,71.1,53.6,29.95,SW,218,2.2,3.6,54,0.00,,---,0.04,VWS V14.01,2013-07-02 02:55:00,
2013-07-01 23:00:00,70.9,53.4,29.95,WSW,243,3.6,3.6,54,0.00,,---,0.04,VWS V14.01,2013-07-02 03:00:00,
2013-07-01 23:05:00,70.9,53.4,29.95,WSW,254,2.2,2.7,54,0.00,,---,0.04,VWS V14.01,2013-07-02 03:05:00,
2013-07-01 23:10:00,70.9,53.9,29.95,WSW,250,3.6,3.6,55,0.00,,---,0.04,VWS V14.01,2013-07-02 03:10:00,
2013-07-01 23:16:00,71.1,54.1,29.95,SW,232,5.4,5.4,55,0.00,,---,0.04,VWS V14.01,2013-07-02 03:16:00,
2013-07-01 23:21:00,71.1,54.1,29.95,NW,305,5.4,8.3,55,0.00,,---,0.04,VWS V14.01,2013-07-02 03:21:00,
2013-07-01 23:26:00,71.1,53.6,29.95,NW,304,8.1,10.1,54,0.00,,---,0.04,VWS V14.01,2013-07-02 03:26:00,
2013-07-01 23:31:00,71.2,53.8,29.95,NW,309,4.0,8.1,54,0.00,,---,0.04,VWS V14.01,2013-07-02 03:31:00,
2013-07-01 23:36:00,71.2,53.8,29.95,SSE,162,0.0,2.2,54,0.00,,---,0.04,VWS V14.01,2013-07-02 03:36:00,
2013-07-01 23:41:00,71.2,53.8,29.95,WSW,255,4.9,5.4,54,0.00,,---,0.04,VWS V14.01,2013-07-02 03:41:00,
2013-07-01 23:46:00,71.1,53.6,29.95,SW,234,0.0,0.0,54,0.00,,---,0.04,VWS V14.01,2013-07-02 03:46:00,
2013-07-01 23:51:00,70.7,53.8,29.95,SW,235,0.0,0.0,55,0.00,,---,0.04,VWS V14.01,2013-07-02 03:51:00,
2013-07-01 23:56:00,70.5,53.6,29.95,SW,222,4.0,4.0,55,0.00,,---,0.04,VWS V14.01,2013-07-02 03:56:00,